Location: Wells
(51.2093°N, 2.6446°W)
Time: 06:59:21
(UTC+01:00)

PCSat - Pass Details

Date: 13 March 2026
Orbit: 780 x 790 km, 67.1° (Epoch: 13 April)

Event Time Altitude Azimuth Distance (km) Brightness Sun altitude
Rises 04:56:19 0° 317° (NW) 3,295 12.5 -15.3°
Reaches altitude 10° 04:59:25 10° 335° (NNW) 2,365 11.9 -14.8°
Maximum altitude 05:03:19 20° 21° (NNE) 1,788 11.8 -14.2°
Drops below altitude 10° 05:07:12 10° 67° (ENE) 2,361 13.4 -13.6°
Sets 05:10:18 0° 85° (E) 3,288 14.7 -13.1°
